GEESAT-5 11 (65560 NORAD) Tracking and Keplerian Element Data

This shows tracking and keplerian element data for the satellite.

Feedback or suggestion? Click here.




ElementValue
Catalog65560
NameGEESAT-5 11
Epoch Orbit1521
Epoch Day353.99862208
Epoch Year2025
RAAN149.6669
Inclination49.9862
Eccentricity0.0008709
Argument of Perigee12.1207
Mean Anonmoly347.9939
Mean Motion14.83342011
Decay Rate1.542E-05
L11 65560U 25201L 25353.99862208 .00001542 00000+0 21352-3 0 9991
L22 65560 49.9862 149.6669 0008709 12.1207 347.9939 14.83342011 15210



Live tracking and technical data element details for GEESAT-5 11 (NORAD 65560). GEESAT-5 11 can be tracked NOW for your location showing map with azimuth and elevation plus other details from your city location.







IsCatalogInMostPopularTable: catalog: 65560, numindb: 4
Update: records affected: 1



GetName: 65560 GEESAT-5 11

Hit Count: updated at: Mon, 20 Apr 2026 09:13:45 GMT